Time,TemperatureF,DewpointF,PressureIn,WindDirection,WindDirectionDegrees,WindSpeedMPH,WindSpeedGustMPH,Humidity,HourlyPrecipIn,Conditions,Clouds,dailyrainin,SoftwareType,DateUTC
2015-03-28 00:11:00,38.2,28.0,29.91,NW,316,3.0,5.0,67,0.00,,,0.00,weatherlink.com 1.10,2015-03-28 04:11:00,
2015-03-28 00:26:00,37.9,27.0,29.92,NW,325,2.0,4.0,66,0.00,,,0.00,weatherlink.com 1.10,2015-03-28 04:26:00,
2015-03-28 00:41:00,37.6,27.0,29.92,NW,304,0.0,6.0,65,0.00,,,0.00,weatherlink.com 1.10,2015-03-28 04:41:00,
2015-03-28 00:56:00,36.9,26.0,29.93,NW,326,2.0,6.0,66,0.00,,,0.00,weatherlink.com 1.10,2015-03-28 04:56:00,
2015-03-28 01:11:00,36.3,26.0,29.93,NNW,341,0.0,5.0,67,0.00,,,0.00,weatherlink.com 1.10,2015-03-28 05:11:00,
2015-03-28 01:26:00,35.7,26.0,29.93,NNE,18,1.0,4.0,67,0.00,,,0.00,weatherlink.com 1.10,2015-03-28 05:26:00,
2015-03-28 01:42:00,35.2,25.0,29.93,NW,314,0.0,3.0,67,0.00,,,0.00,weatherlink.com 1.10,2015-03-28 05:42:00,
2015-03-28 01:57:00,34.3,25.0,29.94,NW,307,0.0,0.0,69,0.00,,,0.00,weatherlink.com 1.10,2015-03-28 05:57:00,
2015-03-28 02:12:00,34.6,26.0,29.94,North,4,2.0,3.0,70,0.00,,,0.00,weatherlink.com 1.10,2015-03-28 06:12:00,
2015-03-28 02:27:00,35.4,25.0,29.94,WNW,290,2.0,4.0,66,0.00,,,0.00,weatherlink.com 1.10,2015-03-28 06:27:00,
2015-03-28 02:42:00,35.4,25.0,29.94,NW,325,1.0,2.0,66,0.00,,,0.00,weatherlink.com 1.10,2015-03-28 06:42:00,
2015-03-28 02:57:00,35.5,25.0,29.94,WNW,290,2.0,4.0,65,0.00,,,0.00,weatherlink.com 1.10,2015-03-28 06:57:00,
2015-03-28 03:12:00,35.2,24.0,29.94,NW,311,0.0,5.0,65,0.00,,,0.00,weatherlink.com 1.10,2015-03-28 07:12:00,
2015-03-28 03:27:00,34.2,23.0,29.95,NNW,330,3.0,5.0,65,0.00,,,0.00,weatherlink.com 1.10,2015-03-28 07:27:00,
2015-03-28 03:42:00,33.9,23.0,29.95,WNW,298,2.0,5.0,64,0.00,,,0.00,weatherlink.com 1.10,2015-03-28 07:42:00,
2015-03-28 03:57:00,33.6,22.0,29.94,NNW,329,0.0,5.0,63,0.00,,,0.00,weatherlink.com 1.10,2015-03-28 07:57:00,
2015-03-28 04:12:00,33.0,22.0,29.94,WNW,294,3.0,3.0,64,0.00,,,0.00,weatherlink.com 1.10,2015-03-28 08:12:00,
2015-03-28 04:27:00,32.7,22.0,29.94,North,1,1.0,1.0,66,0.00,,,0.00,weatherlink.com 1.10,2015-03-28 08:27:00,
2015-03-28 04:42:00,32.6,23.0,29.95,WNW,288,1.0,3.0,69,0.00,,,0.00,weatherlink.com 1.10,2015-03-28 08:42:00,
2015-03-28 04:57:00,33.2,22.0,29.95,NW,323,6.0,9.0,63,0.00,,,0.00,weatherlink.com 1.10,2015-03-28 08:57:00,
2015-03-28 05:12:00,32.0,21.0,29.96,NW,326,4.0,10.0,65,0.00,,,0.00,weatherlink.com 1.10,2015-03-28 09:12:00,
2015-03-28 05:27:00,31.1,21.0,29.97,NW,308,0.0,6.0,65,0.00,,,0.00,weatherlink.com 1.10,2015-03-28 09:27:00,
2015-03-28 05:42:00,30.5,20.0,29.98,NNE,32,2.0,5.0,66,0.00,,,0.00,weatherlink.com 1.10,2015-03-28 09:42:00,
2015-03-28 05:57:00,30.1,20.0,29.98,North,351,1.0,5.0,67,0.00,,,0.00,weatherlink.com 1.10,2015-03-28 09:57:00,
2015-03-28 06:12:00,30.0,20.0,29.99,NE,37,0.0,1.0,67,0.00,,,0.00,weatherlink.com 1.10,2015-03-28 10:12:00,
2015-03-28 06:27:00,30.1,18.0,30.00,NNW,327,3.0,11.0,62,0.00,,,0.00,weatherlink.com 1.10,2015-03-28 10:27:00,
2015-03-28 06:42:00,30.3,17.0,30.01,NNW,332,2.0,6.0,59,0.00,,,0.00,weatherlink.com 1.10,2015-03-28 10:42:00,
2015-03-28 06:57:00,30.1,16.0,30.02,SW,222,2.0,8.0,56,0.00,,,0.00,weatherlink.com 1.10,2015-03-28 10:57:00,
2015-03-28 07:13:00,29.9,15.0,30.03,NW,309,2.0,8.0,55,0.00,,,0.00,weatherlink.com 1.10,2015-03-28 11:13:00,
2015-03-28 07:27:00,29.8,16.0,30.04,North,1,3.0,4.0,57,0.00,,,0.00,weatherlink.com 1.10,2015-03-28 11:27:00,